Time,TemperatureF,DewpointF,PressureIn,WindDirection,WindDirectionDegrees,WindSpeedMPH,WindSpeedGustMPH,Humidity,HourlyPrecipIn,Conditions,Clouds,dailyrainin,SoftwareType,DateUTC
2013-04-19 00:02:00,78.1,69.9,29.88,ESE,112,2.7,-999.0,76,-99.99,,,0.00,Acu-Link.com,2013-04-19 04:02:00,
2013-04-19 00:17:00,78.1,69.9,29.88,ESE,112,4.2,-999.0,76,-99.99,,,0.00,Acu-Link.com,2013-04-19 04:17:00,
2013-04-19 00:32:00,78.1,69.9,29.89,South,180,6.3,-999.0,76,-99.99,,,0.00,Acu-Link.com,2013-04-19 04:32:00,
2013-04-19 00:47:00,78.3,70.1,29.89,ESE,112,4.2,-999.0,76,-99.99,,,0.00,Acu-Link.com,2013-04-19 04:47:00,
2013-04-19 01:02:00,78.4,70.2,29.88,SE,135,5.8,-999.0,76,-99.99,,,0.00,Acu-Link.com,2013-04-19 05:02:00,
2013-04-19 01:17:00,78.4,70.2,29.88,ESE,112,3.2,-999.0,76,-99.99,,,0.00,Acu-Link.com,2013-04-19 05:17:00,
2013-04-19 01:32:00,78.4,70.2,29.87,SE,135,4.2,-999.0,76,-99.99,,,0.00,Acu-Link.com,2013-04-19 05:32:00,
2013-04-19 01:48:00,78.4,70.2,29.87,ESE,112,6.3,-999.0,76,-99.99,,,0.00,Acu-Link.com,2013-04-19 05:48:00,
2013-04-19 02:03:00,78.4,70.2,29.87,SSE,157,3.2,-999.0,76,-99.99,,,0.00,Acu-Link.com,2013-04-19 06:03:00,
2013-04-19 02:18:00,78.1,69.9,29.86,SE,135,3.7,-999.0,76,-99.99,,,0.00,Acu-Link.com,2013-04-19 06:18:00,
2013-04-19 02:33:00,77.4,70.0,29.86,South,180,3.7,-999.0,78,-99.99,,,0.00,Acu-Link.com,2013-04-19 06:33:00,
2013-04-19 02:48:00,77.2,69.8,29.86,SE,135,3.2,-999.0,78,-99.99,,,0.00,Acu-Link.com,2013-04-19 06:48:00,
2013-04-19 03:03:00,77.4,69.6,29.86,SSE,157,2.7,-999.0,77,-99.99,,,0.00,Acu-Link.com,2013-04-19 07:03:00,
2013-04-19 03:18:00,77.4,69.2,29.85,SSE,157,2.7,-999.0,76,-99.99,,,0.00,Acu-Link.com,2013-04-19 07:18:00,
2013-04-19 03:33:00,77.4,69.2,29.85,SSE,157,2.2,-999.0,76,-99.99,,,0.00,Acu-Link.com,2013-04-19 07:33:00,
2013-04-19 03:48:00,77.4,69.2,29.85,SE,135,2.7,-999.0,76,-99.99,,,0.00,Acu-Link.com,2013-04-19 07:48:00,
2013-04-19 04:04:00,77.7,69.1,29.84,SSE,157,4.2,-999.0,75,-99.99,,,0.00,Acu-Link.com,2013-04-19 08:04:00,
2013-04-19 04:19:00,77.9,68.9,29.85,SE,135,3.7,-999.0,74,-99.99,,,0.00,Acu-Link.com,2013-04-19 08:19:00,
2013-04-19 04:34:00,77.9,68.9,29.84,ENE,67,3.2,-999.0,74,-99.99,,,0.00,Acu-Link.com,2013-04-19 08:34:00,
2013-04-19 04:49:00,77.9,69.3,29.85,SSE,157,4.7,-999.0,75,-99.99,,,0.00,Acu-Link.com,2013-04-19 08:49:00,
2013-04-19 05:04:00,77.7,69.1,29.85,SSE,157,2.2,-999.0,75,-99.99,,,0.00,Acu-Link.com,2013-04-19 09:04:00,
2013-04-19 05:19:00,77.7,69.1,29.85,SSE,157,2.7,-999.0,75,-99.99,,,0.00,Acu-Link.com,2013-04-19 09:19:00,
2013-04-19 05:34:00,77.7,69.1,29.85,SSE,157,3.2,-999.0,75,-99.99,,,0.00,Acu-Link.com,2013-04-19 09:34:00,
2013-04-19 05:49:00,77.7,69.5,29.85,South,180,1.1,-999.0,76,-99.99,,,0.00,Acu-Link.com,2013-04-19 09:49:00,
2013-04-19 06:04:00,77.5,69.3,29.86,SSE,157,3.2,-999.0,76,-99.99,,,0.00,Acu-Link.com,2013-04-19 10:04:00,
2013-04-19 06:20:00,77.5,69.3,29.86,ESE,112,6.3,-999.0,76,-99.99,,,0.00,Acu-Link.com,2013-04-19 10:20:00,
2013-04-19 06:35:00,77.2,69.0,29.87,SE,135,4.2,-999.0,76,-99.99,,,0.00,Acu-Link.com,2013-04-19 10:35:00,
2013-04-19 06:50:00,76.8,68.6,29.87,SSE,157,2.2,-999.0,76,-99.99,,,0.00,Acu-Link.com,2013-04-19 10:50:00,
2013-04-19 07:05:00,76.8,68.6,29.87,SSE,157,2.2,-999.0,76,-99.99,,,0.00,Acu-Link.com,2013-04-19 11:05:00,
2013-04-19 07:20:00,76.8,68.6,29.87,SSE,157,3.7,-999.0,76,-99.99,,,0.00,Acu-Link.com,2013-04-19 11:20:00,
2013-04-19 07:35:00,77.4,68.8,29.88,SSE,157,4.2,-999.0,75,-99.99,,,0.00,Acu-Link.com,2013-04-19 11:35:00,
2013-04-19 07:50:00,78.1,69.1,29.88,SSE,157,3.2,-999.0,74,-99.99,,,0.00,Acu-Link.com,2013-04-19 11:50:00,
2013-04-19 08:05:00,79.7,69.9,29.88,South,180,6.8,-999.0,72,-99.99,,,0.00,Acu-Link.com,2013-04-19 12:05:00,
2013-04-19 08:20:00,80.4,70.1,29.89,SE,135,3.7,-999.0,71,-99.99,,,0.00,Acu-Link.com,2013-04-19 12:20:00,
2013-04-19 08:36:00,81.1,70.8,29.89,SE,135,4.2,-999.0,71,-99.99,,,0.00,Acu-Link.com,2013-04-19 12:36:00,
2013-04-19 08:51:00,80.4,69.7,29.88,SSE,157,3.7,-999.0,70,-99.99,,,0.00,Acu-Link.com,2013-04-19 12:51:00,
2013-04-19 09:06:00,80.1,69.8,29.88,South,180,3.7,-999.0,71,-99.99,,,0.00,Acu-Link.com,2013-04-19 13:06:00,
2013-04-19 09:21:00,80.4,69.7,29.89,SE,135,3.7,-999.0,70,-99.99,,,0.00,Acu-Link.com,2013-04-19 13:21:00,
2013-04-19 09:36:00,80.4,69.7,29.90,SSE,157,5.3,-999.0,70,-99.99,,,0.00,Acu-Link.com,2013-04-19 13:36:00,
2013-04-19 09:51:00,81.3,69.7,29.90,SSE,157,7.3,-999.0,68,-99.99,,,0.00,Acu-Link.com,2013-04-19 13:51:00,
2013-04-19 10:07:00,82.9,70.3,29.89,SSE,157,5.3,-999.0,66,-99.99,,,0.00,Acu-Link.com,2013-04-19 14:07:00,
2013-04-19 10:22:00,83.1,71.0,29.89,SE,135,8.3,-999.0,67,-99.99,,,0.00,Acu-Link.com,2013-04-19 14:22:00,
2013-04-19 10:37:00,82.6,70.5,29.87,SSW,202,7.3,-999.0,67,-99.99,,,0.00,Acu-Link.com,2013-04-19 14:37:00,
2013-04-19 10:52:00,82.4,70.8,29.88,SSE,157,7.3,-999.0,68,-99.99,,,0.00,Acu-Link.com,2013-04-19 14:52:00,
2013-04-19 11:07:00,83.7,70.7,29.88,SSE,157,5.3,-999.0,65,-99.99,,,0.00,Acu-Link.com,2013-04-19 15:07:00,
2013-04-19 11:22:00,84.2,70.7,29.87,SE,135,5.8,-999.0,64,-99.99,,,0.00,Acu-Link.com,2013-04-19 15:22:00,
2013-04-19 11:37:00,85.3,71.2,29.87,SE,135,8.3,-999.0,63,-99.99,,,0.00,Acu-Link.com,2013-04-19 15:37:00,
2013-04-19 11:52:00,84.4,71.3,29.86,SSE,157,4.2,-999.0,65,-99.99,,,0.00,Acu-Link.com,2013-04-19 15:52:00,
2013-04-19 12:07:00,84.9,70.9,29.87,SE,135,6.3,-999.0,63,-99.99,,,0.00,Acu-Link.com,2013-04-19 16:07:00,
2013-04-19 12:23:00,84.4,71.3,29.86,SE,135,5.3,-999.0,65,-99.99,,,0.00,Acu-Link.com,2013-04-19 16:23:00,
2013-04-19 12:38:00,84.9,70.9,29.86,South,180,5.8,-999.0,63,-99.99,,,0.00,Acu-Link.com,2013-04-19 16:38:00,
2013-04-19 12:53:00,85.5,71.9,29.84,South,180,6.3,-999.0,64,-99.99,,,0.00,Acu-Link.com,2013-04-19 16:53:00,
2013-04-19 13:08:00,85.3,70.8,29.84,SE,135,4.7,-999.0,62,-99.99,,,0.00,Acu-Link.com,2013-04-19 17:08:00,
2013-04-19 13:23:00,85.1,71.1,29.83,SSE,157,9.9,-999.0,63,-99.99,,,0.00,Acu-Link.com,2013-04-19 17:23:00,
2013-04-19 13:38:00,85.5,71.0,29.84,SSE,157,6.8,-999.0,62,-99.99,,,0.00,Acu-Link.com,2013-04-19 17:38:00,
2013-04-19 13:53:00,85.5,71.0,29.84,SSE,157,6.3,-999.0,62,-99.99,,,0.00,Acu-Link.com,2013-04-19 17:53:00,
2013-04-19 14:08:00,85.5,70.5,29.83,SSE,157,5.3,-999.0,61,-99.99,,,0.00,Acu-Link.com,2013-04-19 18:08:00,
2013-04-19 14:23:00,85.1,70.1,29.83,SSE,157,7.3,-999.0,61,-99.99,,,0.00,Acu-Link.com,2013-04-19 18:23:00,
2013-04-19 14:39:00,85.3,70.8,29.83,SSE,157,6.3,-999.0,62,-99.99,,,0.00,Acu-Link.com,2013-04-19 18:39:00,
2013-04-19 14:54:00,84.9,70.4,29.82,SSE,157,5.8,-999.0,62,-99.99,,,0.00,Acu-Link.com,2013-04-19 18:54:00,
2013-04-19 15:09:00,85.6,71.1,29.81,South,180,4.7,-999.0,62,-99.99,,,0.00,Acu-Link.com,2013-04-19 19:09:00,
2013-04-19 15:24:00,85.3,70.8,29.81,SSE,157,10.4,-999.0,62,-99.99,,,0.00,Acu-Link.com,2013-04-19 19:24:00,
2013-04-19 15:39:00,85.1,71.1,29.80,ESE,112,6.8,-999.0,63,-99.99,,,0.00,Acu-Link.com,2013-04-19 19:39:00,
2013-04-19 15:54:00,85.1,69.6,29.80,SSE,157,6.8,-999.0,60,-99.99,,,0.00,Acu-Link.com,2013-04-19 19:54:00,
2013-04-19 16:09:00,85.3,70.3,29.79,South,180,7.8,-999.0,61,-99.99,,,0.00,Acu-Link.com,2013-04-19 20:09:00,
2013-04-19 16:24:00,85.5,69.5,29.79,SSE,157,7.3,-999.0,59,-99.99,,,0.00,Acu-Link.com,2013-04-19 20:24:00,
2013-04-19 16:39:00,84.9,68.4,29.80,SSW,202,6.3,-999.0,58,-99.99,,,0.00,Acu-Link.com,2013-04-19 20:39:00,
2013-04-19 16:55:00,85.1,68.6,29.80,ESE,112,4.2,-999.0,58,-99.99,,,0.00,Acu-Link.com,2013-04-19 20:55:00,
2013-04-19 17:10:00,84.4,69.0,29.80,SSE,157,4.2,-999.0,60,-99.99,,,0.00,Acu-Link.com,2013-04-19 21:10:00,
2013-04-19 17:25:00,84.2,68.3,29.80,SE,135,7.3,-999.0,59,-99.99,,,0.00,Acu-Link.com,2013-04-19 21:25:00,
2013-04-19 17:55:00,84.4,68.5,29.81,SSE,157,7.3,-999.0,59,-99.99,,,0.00,Acu-Link.com,2013-04-19 21:55:00,
2013-04-19 18:10:00,82.6,68.7,29.81,SSE,157,5.8,-999.0,63,-99.99,,,0.00,Acu-Link.com,2013-04-19 22:10:00,
2013-04-19 18:25:00,82.6,69.2,29.81,SSE,157,5.3,-999.0,64,-99.99,,,0.00,Acu-Link.com,2013-04-19 22:25:00,
2013-04-19 18:40:00,82.4,69.9,29.81,SE,135,3.7,-999.0,66,-99.99,,,0.00,Acu-Link.com,2013-04-19 22:40:00,
2013-04-19 18:55:00,81.9,70.3,29.81,SSE,157,3.2,-999.0,68,-99.99,,,0.00,Acu-Link.com,2013-04-19 22:55:00,
2013-04-19 19:11:00,81.3,70.1,29.81,SE,135,5.8,-999.0,69,-99.99,,,0.00,Acu-Link.com,2013-04-19 23:11:00,
2013-04-19 19:26:00,80.8,70.1,29.81,South,180,4.2,-999.0,70,-99.99,,,0.00,Acu-Link.com,2013-04-19 23:26:00,
2013-04-19 19:41:00,80.4,70.1,29.84,South,180,1.7,-999.0,71,-99.99,,,0.00,Acu-Link.com,2013-04-19 23:41:00,
2013-04-19 19:56:00,80.1,70.2,29.84,SSE,157,4.7,-999.0,72,-99.99,,,0.00,Acu-Link.com,2013-04-19 23:56:00,
2013-04-19 20:11:00,79.9,70.5,29.86,SSE,157,6.3,-999.0,73,-99.99,,,0.00,Acu-Link.com,2013-04-20 00:11:00,
2013-04-19 20:26:00,79.9,70.5,29.86,SSE,157,2.7,-999.0,73,-99.99,,,0.00,Acu-Link.com,2013-04-20 00:26:00,
2013-04-19 20:41:00,79.7,70.7,29.87,SSE,157,2.7,-999.0,74,-99.99,,,0.00,Acu-Link.com,2013-04-20 00:41:00,
2013-04-19 20:56:00,79.3,70.3,29.87,SSE,157,2.2,-999.0,74,-99.99,,,0.00,Acu-Link.com,2013-04-20 00:56:00,
2013-04-19 21:11:00,79.3,70.3,29.89,SSE,157,2.2,-999.0,74,-99.99,,,0.00,Acu-Link.com,2013-04-20 01:11:00,
2013-04-19 21:27:00,79.2,70.6,29.89,SSE,157,3.2,-999.0,75,-99.99,,,0.00,Acu-Link.com,2013-04-20 01:27:00,
2013-04-19 21:42:00,79.0,70.4,29.90,SSE,157,1.7,-999.0,75,-99.99,,,0.00,Acu-Link.com,2013-04-20 01:42:00,
2013-04-19 21:57:00,79.0,70.8,29.90,SSE,157,3.7,-999.0,76,-99.99,,,0.00,Acu-Link.com,2013-04-20 01:57:00,
2013-04-19 22:12:00,78.8,70.6,29.90,SSE,157,1.7,-999.0,76,-99.99,,,0.00,Acu-Link.com,2013-04-20 02:12:00,
2013-04-19 22:27:00,78.8,71.0,29.90,SSE,157,0.0,-999.0,77,-99.99,,,0.00,Acu-Link.com,2013-04-20 02:27:00,
2013-04-19 22:42:00,78.4,70.6,29.89,SSE,157,2.7,-999.0,77,-99.99,,,0.00,Acu-Link.com,2013-04-20 02:42:00,
2013-04-19 22:57:00,78.4,70.6,29.90,SSE,157,1.7,-999.0,77,-99.99,,,0.00,Acu-Link.com,2013-04-20 02:57:00,
2013-04-19 23:12:00,78.3,70.5,29.89,SSE,157,2.2,-999.0,77,-99.99,,,0.00,Acu-Link.com,2013-04-20 03:12:00,
2013-04-19 23:27:00,78.3,70.9,29.89,SSE,157,1.7,-999.0,78,-99.99,,,0.00,Acu-Link.com,2013-04-20 03:27:00,
2013-04-19 23:43:00,77.9,70.5,29.89,SE,135,2.7,-999.0,78,-99.99,,,0.00,Acu-Link.com,2013-04-20 03:43:00,
2013-04-19 23:58:00,77.9,70.1,29.88,SSE,157,2.7,-999.0,77,-99.99,,,0.00,Acu-Link.com,2013-04-20 03:58:00,